Date String (YYYY-MM-DD hh:mm:ss) UTC,Instrument flags,absolute air pressure of the measurement (hPa),sample flow rate (lpm),inlet stack bypass flow (lpm),air temperature of the measurement (°C),ambient temperature measured by the external sensor (°C),aerosol sample conditioner tube jacket temperature (°C),OPC LED temperature (°C),internal box temperature (°C),relative humidity of the measurement (%),span deviation,mass concentration of particles derived from Lorenz-Mie calculation of OPC scattering (μg/m³),mass concentration of particles derived from Lorenz-Mie calculation of OPC scattering (μg/m³),mass concentration of particles derived from Lorenz-Mie calculation of OPC scattering (μg/m³)
DateTimeUTC,F1_M11,P_M11,Q1_M11,Q2_M11,T1_M11,T2_M11,T3_M11,T4_M11,T5_M11,U1_M11,ZSPAN_M11,X0_M11,X2_M11,X1_M11
2024-04-29 22:00:00,SystemResetWarning,0823.6,4.99,000.00,025.3,024.3,000.0,033.6,027.1,013.9,0000.0,0010.08,0003.64,0001.73
2024-04-29 22:01:00,SystemResetWarning,0823.6,5.00,000.00,025.3,024.5,000.0,033.6,027.2,013.3,0000.0,0010.02,0003.62,0001.72
2024-04-29 22:02:00,SystemResetWarning,0823.6,5.00,000.00,025.4,024.6,000.0,033.6,027.3,013.2,0000.0,0010.26,0003.66,0001.73
2024-04-29 22:03:00,SystemResetWarning,0823.6,5.00,000.00,025.4,024.7,000.0,033.7,027.3,013.3,0000.0,0010.41,0003.68,0001.72
2024-04-29 22:04:00,SystemResetWarning,0823.5,5.00,000.00,025.5,024.8,000.0,033.7,027.4,013.2,0000.0,0010.29,0003.65,0001.72
2024-04-29 22:05:00,SystemResetWarning,0823.5,5.00,000.00,025.6,024.9,000.0,033.7,027.4,013.4,0000.0,0010.12,0003.63,0001.74
2024-04-29 22:06:00,SystemResetWarning,0823.5,5.00,000.00,025.6,025.0,000.0,033.8,027.5,013.8,0000.0,0010.07,0003.59,0001.74
2024-04-29 22:07:00,SystemResetWarning,0823.5,5.00,000.00,025.7,025.1,000.0,033.8,027.6,013.4,0000.0,0009.61,0003.59,0001.74
2024-04-29 22:08:00,SystemResetWarning,0823.5,5.00,000.00,025.7,025.2,000.0,033.8,027.6,012.9,0000.0,0009.38,0003.61,0001.75
2024-04-29 22:09:00,SystemResetWarning,0823.5,4.99,000.00,025.7,024.4,000.0,033.9,027.1,012.9,0000.0,0009.07,0003.58,0001.75
2024-04-29 22:10:00,SystemResetWarning,0823.4,5.00,000.00,025.3,022.7,000.0,033.9,026.2,013.8,0000.0,0008.62,0003.53,0001.75
2024-04-29 22:11:00,SystemResetWarning,0823.4,5.01,000.00,025.1,022.6,000.0,033.9,026.1,013.6,0000.0,0008.40,0003.48,0001.73
2024-04-29 22:12:00,SystemResetWarning,0823.5,5.00,000.00,025.0,022.9,000.0,033.7,026.2,013.5,0000.0,0008.55,0003.51,0001.73
2024-04-29 22:13:00,SystemResetWarning,0823.5,5.00,000.00,025.0,023.2,000.0,033.7,026.5,013.7,0000.0,0008.83,0003.53,0001.73
2024-04-29 22:14:00,SystemResetWarning,0823.5,5.01,000.00,025.1,023.5,000.0,033.6,026.7,014.0,0000.0,0009.14,0003.49,0001.73
2024-04-29 22:15:00,SystemResetWarning,0823.5,5.00,000.00,025.1,023.8,000.0,033.6,026.8,015.4,0000.0,0009.14,0003.45,0001.73
2024-04-29 22:16:00,SystemResetWarning,0823.5,4.99,000.00,025.2,024.0,000.0,033.6,027.0,015.2,0000.0,0009.35,0003.47,0001.74
2024-04-29 22:17:00,SystemResetWarning,0823.5,4.99,000.00,025.2,024.2,000.0,033.6,027.1,014.7,0000.0,0009.47,0003.52,0001.73
2024-04-29 22:18:00,SystemResetWarning,0823.6,4.99,000.00,025.3,024.4,000.0,033.6,027.1,014.4,0000.0,0009.68,0003.50,0001.72
2024-04-29 22:19:00,SystemResetWarning,0823.5,5.00,000.00,025.3,024.5,000.0,033.6,027.2,013.5,0000.0,0009.89,0003.48,0001.71
2024-04-29 22:20:00,SystemResetWarning,0823.5,4.99,000.00,025.4,024.6,000.0,033.6,027.3,013.5,0000.0,0009.67,0003.46,0001.70
2024-04-29 22:21:00,SystemResetWarning,0823.5,5.00,000.00,025.4,024.7,000.0,033.7,027.3,013.5,0000.0,0009.76,0003.48,0001.71
2024-04-29 22:22:00,SystemResetWarning,0823.5,5.00,000.00,025.5,024.8,000.0,033.7,027.4,013.3,0000.0,0009.90,0003.50,0001.72
2024-04-29 22:23:00,SystemResetWarning,0823.5,5.01,000.00,025.5,024.9,000.0,033.7,027.4,013.0,0000.0,0009.79,0003.45,0001.71
2024-04-29 22:24:00,SystemResetWarning,0823.4,5.00,000.00,025.6,025.0,000.0,033.7,027.5,013.8,0000.0,0009.41,0003.37,0001.69
2024-04-29 22:25:00,SystemResetWarning,0823.5,5.00,000.00,025.6,025.0,000.0,033.8,027.5,013.4,0000.0,0008.79,0003.36,0001.70
2024-04-29 22:26:00,SystemResetWarning,0823.5,5.00,000.00,025.7,025.1,000.0,033.8,027.6,013.0,0000.0,0008.71,0003.40,0001.69
2024-04-29 22:27:00,SystemResetWarning,0823.5,5.00,000.00,025.7,025.1,000.0,033.8,027.6,012.8,0000.0,0008.50,0003.36,0001.68
2024-04-29 22:28:00,SystemResetWarning,0823.4,4.99,000.00,025.7,025.1,000.0,033.9,027.6,013.2,0000.0,0008.37,0003.33,0001.67
2024-04-29 22:29:00,SystemResetWarning,0823.4,5.00,000.00,025.6,023.7,000.0,033.9,026.8,013.0,0000.0,0008.33,0003.35,0001.68
2024-04-29 22:30:00,SystemResetWarning,0823.4,5.01,000.00,025.2,022.4,000.0,033.9,026.0,013.1,0000.0,0008.01,0003.36,0001.70
2024-04-29 22:31:00,SystemResetWarning,0823.3,5.01,000.00,025.0,022.6,000.0,033.9,026.0,013.4,0000.0,0007.91,0003.33,0001.70
2024-04-29 22:32:00,SystemResetWarning,0823.4,5.00,000.00,025.0,022.9,000.0,033.7,026.2,013.4,0000.0,0007.93,0003.31,0001.69
2024-04-29 22:33:00,SystemResetWarning,0823.4,5.01,000.00,025.0,023.2,000.0,033.7,026.5,013.9,0000.0,0008.04,0003.34,0001.69
2024-04-29 22:34:00,SystemResetWarning,0823.4,5.01,000.00,025.0,023.5,000.0,033.6,026.7,014.1,0000.0,0008.26,0003.43,0001.69
2024-04-29 22:35:00,SystemResetWarning,0823.4,5.00,000.00,025.1,023.7,000.0,033.6,026.8,013.7,0000.0,0008.37,0003.47,0001.70
2024-04-29 22:36:00,SystemResetWarning,0823.4,4.98,000.00,025.1,023.9,000.0,033.6,026.9,013.8,0000.0,0008.42,0003.50,0001.70
2024-04-29 22:37:00,SystemResetWarning,0823.4,4.99,000.00,025.1,024.1,000.0,033.6,027.0,013.9,0000.0,0008.28,0003.45,0001.69
2024-04-29 22:38:00,SystemResetWarning,0823.4,4.99,000.00,025.2,024.3,000.0,033.6,027.0,013.6,0000.0,0008.33,0003.46,0001.70
2024-04-29 22:39:00,SystemResetWarning,0823.4,5.01,000.00,025.2,024.4,000.0,033.6,027.1,013.7,0000.0,0008.39,0003.44,0001.68
2024-04-29 22:40:00,SystemResetWarning,0823.4,5.02,000.00,025.3,024.5,000.0,033.6,027.2,014.1,0000.0,0008.35,0003.43,0001.68
2024-04-29 22:41:00,SystemResetWarning,0823.4,5.00,000.00,025.3,024.6,000.0,033.6,027.2,013.6,0000.0,0008.37,0003.36,0001.65
2024-04-29 22:42:00,SystemResetWarning,0823.4,4.99,000.00,025.4,024.7,000.0,033.6,027.3,013.9,0000.0,0008.65,0003.33,0001.64
2024-04-29 22:43:00,SystemResetWarning,0823.4,5.00,000.00,025.4,024.8,000.0,033.7,027.4,013.6,0000.0,0009.33,0003.36,0001.65
2024-04-29 22:44:00,SystemResetWarning,0823.5,5.00,000.00,025.5,024.9,000.0,033.7,027.4,013.8,0000.0,0009.38,0003.35,0001.65
2024-04-29 22:45:00,SystemResetWarning,0823.4,5.00,000.00,025.5,025.0,000.0,033.7,027.4,013.6,0000.0,0008.99,0003.24,0001.64
2024-04-29 22:46:00,SystemResetWarning,0823.4,5.00,000.00,025.6,025.0,000.0,033.7,027.5,013.9,0000.0,0009.01,0003.24,0001.64
2024-04-29 22:47:00,SystemResetWarning,0823.4,5.00,000.00,025.6,025.1,000.0,033.8,027.6,014.0,0000.0,0008.88,0003.19,0001.63
2024-04-29 22:48:00,SystemResetWarning,0823.4,5.00,000.00,025.7,025.1,000.0,033.8,027.6,013.9,0000.0,0008.88,0003.17,0001.62
2024-04-29 22:49:00,SystemResetWarning,0823.4,4.99,000.00,025.6,024.3,000.0,033.9,027.1,014.3,0000.0,0008.98,0003.17,0001.61
2024-04-29 22:50:00,SystemResetWarning,0823.4,5.01,000.00,025.3,022.7,000.0,033.9,026.1,014.4,0000.0,0008.95,0003.19,0001.62
2024-04-29 22:51:00,SystemResetWarning,0823.4,5.02,000.00,025.0,022.6,000.0,033.9,026.0,014.4,0000.0,0008.85,0003.17,0001.63
2024-04-29 22:52:00,SystemResetWarning,0823.4,4.99,000.00,025.0,022.9,000.0,033.7,026.1,014.8,0000.0,0008.45,0003.16,0001.65
2024-04-29 22:53:00,SystemResetWarning,0823.4,5.00,000.00,025.0,023.2,000.0,033.6,026.4,013.9,0000.0,0007.99,0003.19,0001.64
2024-04-29 22:54:00,SystemResetWarning,0823.4,5.00,000.00,025.0,023.5,000.0,033.6,026.7,013.9,0000.0,0007.13,0003.19,0001.63
2024-04-29 22:55:00,SystemResetWarning,0823.4,5.01,000.00,025.1,023.7,000.0,033.6,026.8,013.9,0000.0,0007.26,0003.18,0001.62
2024-04-29 22:56:00,SystemResetWarning,0823.4,4.98,000.00,025.1,023.9,000.0,033.6,026.9,014.2,0000.0,0007.33,0003.16,0001.61
2024-04-29 22:57:00,SystemResetWarning,0823.4,4.99,000.00,025.2,024.1,000.0,033.6,027.0,013.7,0000.0,0007.23,0003.12,0001.60
2024-04-29 22:58:00,SystemResetWarning,0823.4,5.00,000.00,025.2,024.3,000.0,033.6,027.1,013.7,0000.0,0007.15,0003.12,0001.61
2024-04-29 22:59:00,SystemResetWarning,0823.5,5.01,000.00,025.3,024.4,000.0,033.6,027.1,013.7,0000.0,0007.35,0003.16,0001.61
